KENT RIDGE 1

Last updated on Mon Sep 21 2026 00:02:46 GMT+0000 (Coordinated Universal Time)

1 41167U 15077B 26263.23312112 .00002933 00000+0 87849-4 0 9999 2 41167 14.9798 278.8673 0008181 141.4627 218.6280 15.23617472595614
UTC large
Height (km)
Speed (km/s)
/
Latitude / Longitude
Inclination (degrees)
Orbital Period (minutes)
Azimuth
Elevation
Range (km)
Doppler Factor

Next 0 passes for location: London (51.5072 / 0.1276)

No passes found over London.
KENT RIDGE 1